| time (UTC) | temp C | wind direction | speed KPH | gust KPH | rain 1hr cm | rain 24hr cm | rain mn cm | humidity % | barometer mb |
| 20260904073050 | 23 | 191 | 6.4 | 9.7 | 0.00 | 0.13 | 0.00 | 86 | 1007.4 |
| 20260904071516 | 24 | 167 | 6.4 | 11.3 | 0.00 | 0.13 | 0.00 | 86 | 1007.4 |
| 20260904070017 | 24 | 190 | 8.0 | 11.3 | 0.00 | 0.13 | 0.00 | 87 | 1007.4 |
| 20260904064558 | 24 | 185 | 8.0 | 11.3 | 0.00 | 0.13 | 0.00 | 87 | 1007.5 |
| 20260904063058 | 25 | 172 | 6.4 | 11.3 | 0.00 | 0.13 | 0.00 | 87 | 1007.4 |
| 20260904061537 | 25 | 166 | 8.0 | 12.9 | 0.00 | 0.13 | 0.00 | 87 | 1007.5 |
| 20260904060037 | 24 | 174 | 8.0 | 11.3 | 0.00 | 0.13 | 0.00 | 86 | 1007.4 |
| 20260904054518 | 25 | 186 | 8.0 | 14.5 | 0.00 | 0.13 | 0.00 | 87 | 1007.3 |
| 20260904053017 | 25 | 170 | 8.0 | 16.1 | 0.00 | 0.13 | 0.00 | 87 | 1007.2 |
| 20260904051600 | 25 | 169 | 9.7 | 14.5 | 0.00 | 0.13 | 0.00 | 87 | 1007.1 |
| 20260904050059 | 25 | 169 | 9.7 | 12.9 | 0.00 | 0.13 | 0.00 | 86 | 1007.2 |
| 20260904044542 | 25 | 169 | 8.0 | 12.9 | 0.00 | 0.13 | 0.00 | 81 | 1007.2 |
| 20260904043037 | 24 | 146 | 1.6 | 6.4 | 0.00 | 0.13 | 0.00 | 82 | 1007.3 |
| 20260904041518 | 25 | 160 | 4.8 | 9.7 | 0.00 | 0.13 | 0.00 | 83 | 1007.3 |
| 20260904040016 | 25 | 167 | 6.4 | 11.3 | 0.00 | 0.13 | 0.00 | 85 | 1007.2 |
| 20260904034602 | 25 | 153 | 8.0 | 14.5 | 0.00 | 0.13 | 0.00 | 86 | 1007.1 |
| 20260904033107 | 25 | 166 | 6.4 | 12.9 | 0.00 | 0.13 | 0.00 | 85 | 1007.3 |
| 20260904031538 | 25 | 136 | 6.4 | 9.7 | 0.00 | 0.13 | 0.00 | 85 | 1007.3 |
| 20260904030037 | 25 | 141 | 4.8 | 9.7 | 0.00 | 0.13 | 0.00 | 86 | 1007.2 |
| 20260904024518 | 25 | 143 | 1.6 | 6.4 | 0.00 | 0.13 | 0.00 | 86 | 1007.1 |
| 20260904023015 | 26 | 120 | 1.6 | 3.2 | 0.00 | 0.13 | 0.00 | 87 | 1007.1 |
| 20260904021616 | 26 | 142 | 1.6 | 3.2 | 0.00 | 0.13 | 0.00 | 87 | 1007.1 |
| 20260904020100 | 26 | 206 | 0.0 | 1.6 | 0.00 | 0.13 | 0.00 | 86 | 1006.8 |
| 20260904014636 | 26 | 170 | 1.6 | 8.0 | 0.00 | 0.13 | 0.00 | 86 | 1006.6 |
| 20260904013035 | 27 | 186 | 6.4 | 12.9 | 0.00 | 0.13 | 0.00 | 85 | 1006.3 |
| 20260904011532 | 27 | 161 | 9.7 | 16.1 | 0.00 | 0.13 | 0.00 | 85 | 1006.1 |
| 20260904010013 | 27 | 181 | 9.7 | 14.5 | 0.00 | 0.13 | 0.00 | 84 | 1006.1 |
| 20260904004513 | 27 | 169 | 8.0 | 12.9 | 0.00 | 0.13 | 0.00 | 83 | 1006.1 |
| 20260904003106 | 28 | 184 | 6.4 | 11.3 | 0.00 | 0.13 | 0.00 | 82 | 1006.1 |
| 20260904001554 | 28 | 179 | 6.4 | 11.3 | 0.00 | 0.13 | 0.00 | 81 | 1006.2 |
| 20260904000035 | 29 | 190 | 8.0 | 16.1 | 0.00 | 0.13 | 0.00 | 79 | 1006.0 |
| 20260903234535 | 29 | 186 | 8.0 | 17.7 | 0.00 | 0.13 | 0.00 | 77 | 1005.8 |
| 20260903233017 | 28 | 195 | 11.3 | 17.7 | 0.00 | 0.13 | 0.00 | 78 | 1005.8 |
| 20260903231515 | 28 | 198 | 6.4 | 14.5 | 0.00 | 0.13 | 0.00 | 79 | 1006.0 |
| 20260903230106 | 28 | 203 | 11.3 | 22.5 | 0.00 | 0.13 | 0.00 | 77 | 1005.8 |
| 20260903224558 | 28 | 207 | 12.9 | 27.4 | 0.00 | 0.13 | 0.00 | 75 | 1005.6 |
| 20260903223039 | 30 | 213 | 19.3 | 27.4 | 0.00 | 0.13 | 0.00 | 70 | 1005.2 |
| 20260903221539 | 30 | 234 | 17.7 | 33.8 | 0.00 | 0.13 | 0.00 | 69 | 1005.3 |
| 20260903220021 | 30 | 233 | 12.9 | 29.0 | 0.00 | 0.13 | 0.00 | 70 | 1005.5 |
| 20260903214535 | 30 | 223 | 17.7 | 27.4 | 0.00 | 0.13 | 0.00 | 71 | 1005.3 |
| 20260903213101 | 30 | 210 | 17.7 | 25.7 | 0.00 | 0.13 | 0.00 | 71 | 1005.5 |
| 20260903211600 | 30 | 213 | 16.1 | 30.6 | 0.00 | 0.13 | 0.00 | 69 | 1006.0 |
| 20260903210042 | 30 | 199 | 20.9 | 32.2 | 0.00 | 0.13 | 0.00 | 70 | 1005.7 |
| 20260903204541 | 30 | 226 | 16.1 | 30.6 | 0.00 | 0.13 | 0.00 | 70 | 1005.5 |
| 20260903203022 | 30 | 205 | 19.3 | 30.6 | 0.00 | 0.13 | 0.00 | 68 | 1005.9 |
| 20260903201529 | 30 | 220 | 14.5 | 37.0 | 0.00 | 0.13 | 0.00 | 70 | 1005.9 |
| 20260903200003 | 30 | 192 | 24.1 | 40.2 | 0.00 | 0.13 | 0.00 | 70 | 1005.4 |
| 20260903194604 | 29 | 180 | 25.7 | 0.0 | 0.00 | 0.00 | 0.00 | 71 | 1005.6 |
| 20260903193037 | 29 | 208 | 20.9 | 35.4 | 0.00 | 0.13 | 0.00 | 70 | 1006.0 |
| 20260903191536 | 28 | 200 | 22.5 | 33.8 | 0.00 | 0.13 | 0.00 | 71 | 1006.2 |
| 20260903190003 | 28 | 177 | 24.1 | 45.1 | 0.00 | 0.13 | 0.00 | 70 | 1006.2 |
| 20260903184503 | 28 | 172 | 24.1 | 43.5 | 0.00 | 0.13 | 0.00 | 69 | 1006.1 |
| 20260903183043 | 28 | 208 | 32.2 | 43.5 | 0.00 | 0.13 | 0.00 | 70 | 1006.2 |
| 20260903181546 | 28 | 178 | 22.5 | 40.2 | 0.00 | 0.13 | 0.00 | 72 | 1006.5 |
| 20260903180043 | 27 | 169 | 16.1 | 37.0 | 0.00 | 0.13 | 0.00 | 76 | 1006.5 |
| 20260903174516 | 26 | 209 | 19.3 | 32.2 | 0.00 | 0.13 | 0.00 | 76 | 1006.4 |
| 20260903173102 | 26 | 174 | 24.1 | 38.6 | 0.00 | 0.13 | 0.00 | 75 | 1006.4 |
| 20260903171553 | 27 | 176 | 24.1 | 41.8 | 0.00 | 0.13 | 0.13 | 73 | 1006.6 |
| 20260903170100 | 27 | 194 | 24.1 | 37.0 | 0.00 | 0.13 | 0.13 | 76 | 1006.3 |
| 20260903164632 | 26 | 179 | 20.9 | 33.8 | 0.00 | 0.13 | 0.13 | 78 | 1006.7 |
| 20260903163012 | 26 | 154 | 29.0 | 41.8 | 0.00 | 0.13 | 0.13 | 76 | 1007.0 |
| 20260903161510 | 27 | 193 | 20.9 | 49.9 | 0.00 | 0.13 | 0.13 | 74 | 1007.7 |
| 20260903160054 | 26 | 183 | 30.6 | 45.1 | 0.00 | 0.13 | 0.13 | 75 | 1007.8 |
| 20260903154556 | 26 | 193 | 16.1 | 40.2 | 0.00 | 0.13 | 0.13 | 77 | 1007.9 |
| 20260903153034 | 25 | 181 | 16.1 | 38.6 | 0.00 | 0.13 | 0.13 | 80 | 1007.8 |
| 20260903151544 | 25 | 167 | 17.7 | 33.8 | 0.00 | 0.13 | 0.13 | 83 | 1007.8 |
| 20260903150015 | 25 | 134 | 16.1 | 37.0 | 0.00 | 0.13 | 0.13 | 84 | 1008.1 |
| 20260903144520 | 24 | 195 | 14.5 | 32.2 | 0.00 | 0.13 | 0.13 | 86 | 1008.1 |
| 20260903143100 | 23 | 134 | 14.5 | 30.6 | 0.00 | 0.13 | 0.13 | 85 | 1008.0 |
| 20260903141556 | 23 | 113 | 12.9 | 27.4 | 0.03 | 0.13 | 0.13 | 87 | 1007.8 |
| 20260903140051 | 22 | 129 | 14.5 | 35.4 | 0.10 | 0.13 | 0.13 | 87 | 1008.0 |
| 20260903134542 | 22 | 167 | 14.5 | 29.0 | 0.10 | 0.13 | 0.13 | 87 | 1007.9 |
| 20260903133019 | 21 | 191 | 17.7 | 27.4 | 0.10 | 0.13 | 0.13 | 87 | 1007.6 |
| 20260903131517 | 22 | 130 | 9.7 | 20.9 | 0.08 | 0.10 | 0.10 | 87 | 1008.7 |
| 20260903130100 | 22 | 186 | 6.4 | 16.1 | 0.00 | 0.03 | 0.03 | 87 | 1008.9 |
| 20260903124608 | 22 | 165 | 6.4 | 16.1 | 0.00 | 0.03 | 0.03 | 87 | 1008.5 |
| 20260903123042 | -17 | 0.0 | 0.0 | 0.00 | 0.03 | 0.03 | 1008.0 | ||
| 20260903121537 | -17 | 0.0 | 0.0 | 0.00 | 0.03 | 0.03 | 1008.2 | ||
| 20260903120036 | -17 | 0.0 | 0.0 | 0.00 | 0.03 | 0.03 | 1008.3 | ||
| 20260903114540 | -17 | 0.0 | 0.0 | 0.00 | 0.03 | 0.03 | 1008.1 | ||
| 20260903113024 | -17 | 0.0 | 0.0 | 0.00 | 0.03 | 0.03 | 1008.1 | ||
| 20260903111520 | -17 | 0.0 | 0.0 | 0.00 | 0.03 | 0.03 | 1007.8 | ||
| 20260903110015 | -17 | 0.0 | 0.0 | 0.00 | 0.03 | 0.03 | 1008.6 | ||
| 20260903104511 | -17 | 0.0 | 0.0 | 0.00 | 0.03 | 0.03 | 1008.4 | ||
| 20260903103049 | -17 | 0.0 | 0.0 | 0.00 | 0.03 | 0.03 | 1008.7 | ||
| 20260903101545 | -17 | 0.0 | 0.0 | 0.03 | 0.03 | 0.03 | 1009.4 | ||
| 20260903100030 | -17 | 0.0 | 0.0 | 0.03 | 0.03 | 0.03 | 1009.8 | ||
| 20260903094524 | 22 | 105 | 11.3 | 32.2 | 0.03 | 0.03 | 0.03 | 78 | 1008.8 |
| 20260903093003 | 22 | 175 | 17.7 | 29.0 | 0.03 | 0.03 | 0.03 | 84 | 1007.8 |
| 20260903091600 | 22 | 210 | 16.1 | 30.6 | 0.00 | 0.00 | 0.00 | 87 | 1008.8 |
| 20260903090040 | 22 | 249 | 6.4 | 25.7 | 0.00 | 0.00 | 0.00 | 86 | 1009.4 |
| 20260903084538 | 23 | 197 | 19.3 | 29.0 | 0.00 | 0.00 | 0.00 | 87 | 1008.9 |
| 20260903083020 | 23 | 238 | 4.8 | 12.9 | 0.00 | 0.00 | 0.00 | 86 | 1009.0 |
| 20260903081519 | 23 | 172 | 9.7 | 11.3 | 0.00 | 0.00 | 0.00 | 87 | 1007.7 |
| 20260903074604 | 22 | 134 | 6.4 | 12.9 | 0.00 | 0.00 | 0.00 | 70 | 1007.7 |